Wind_Speed
3 4 9 22 14 13 3 6 8 7 10 6 10 17 18 22 11 11 16 19 21 21 27 23 27 32 37 38 39 43 43 46 46 45 43 37 39 37 35 34 33 32 30 28
2 10 18 11 5 10 12 18 19 15 15 6 16 23 18 12 19 22 20 21 21 20 21 7 20 27 34 39 41 43 45 48 49 47 42 33 38 41 39 36 34 33 32 30
20 11 13 10 7 6 15 15 18 19 6 5 9 19 10 13 14 20 15 20 21 26 22 12 9 23 28 34 41 44 46 48 48 45 41 31 32 29 35 36 35 35 33 31
10 9 11 10 8 15 24 13 14 8 4 12 4 23 6 8 13 11 15 17 18 22 17 14 9 10 27 34 35 37 41 44 45 46 45 41 35 26 32 35 41 37 35 33
9 5 7 10 22 11 21 5 6 2 4 5 3 6 4 8 7 12 15 15 18 18 14 12 11 19 26 29 35 38 42 44 44 48 45 43 33 30 31 34 38 38 36 34
10 2 5 9 4 9 2 4 5 4 1 11 10 9 6 6 7 6 10 15 15 18 10 8 6 14 20 26 31 37 40 42 44 47 44 44 42 38 32 37 39 43 40 38
3 6 3 5 4 2 4 5 3 3 1 11 9 6 19 6 11 11 14 15 13 12 5 7 9 10 18 29 33 34 38 38 45 47 49 50 48 44 42 41 40 39 42 45
2 17 9 6 10 9 11 12 7 7 9 19 4 10 12 11 11 11 10 13 11 8 8 10 10 11 18 25 31 32 36 36 43 49 50 49 47 45 41 43 41 43 44 45
5 16 3 4 3 8 2 5 13 2 2 1 10 14 10 4 9 7 10 13 16 10 9 10 7 9 17 23 30 37 36 36 42 43 40 44 44 44 42 42 44 43 42 43
3 7 4 1 2 3 7 3 2 2 5 8 10 9 15 9 6 7 13 14 14 9 4 2 5 7 16 22 29 34 37 40 37 38 41 43 45 47 41 41 43 43 41 40
3 5 10 2 7 8 2 5 5 3 4 12 16 15 6 8 1 6 10 10 9 10 7 8 7 10 17 21 27 32 34 35 38 45 46 45 47 47 45 44 43 45 43 41
6 5 6 17 11 5 6 15 16 9 10 5 4 10 29 28 20 20 18 10 6 8 10 9 8 7 13 21 26 35 35 38 49 47 42 46 44 45 46 47 46 45 43 41
4 4 11 6 11 14 8 10 9 7 3 19 16 14 24 24 22 22 16 18 10 11 9 6 6 8 11 20 25 31 34 44 40 37 43 40 43 43 45 45 47 45 42 41
8 14 18 19 17 3 6 9 9 14 14 17 18 24 24 26 28 29 17 16 10 13 9 8 9 10 9 19 24 27 32 39 38 41 42 41 42 48 46 44 45 45 44 44
9 22 18 27 26 24 28 29 30 28 30 29 31 29 22 24 28 25 28 25 18 9 9 14 13 11 12 14 24 31 35 37 43 41 38 42 45 40 38 41 44 43 43 44
6 12 23 30 29 26 27 33 34 34 33 35 29 30 28 28 29 29 30 28 26 16 17 16 12 11 11 12 23 27 30 33 37 36 39 37 35 39 43 41 42 42 43 43
9 9 14 18 8 22 18 24 35 35 29 26 27 26 18 17 21 22 18 19 18 19 19 19 20 21 18 25 32 27 34 36 37 36 33 35 37 38 40 39 40 43 45 45
17 18 14 20 20 27 15 7 15 26 26 22 11 16 17 20 24 11 20 22 23 22 22 20 18 19 33 37 34 35 29 28 29 27 27 32 35 34 35 36 38 40 43 46
18 17 11 13 20 21 20 7 8 8 4 13 12 13 15 20 20 5 21 21 19 18 15 15 24 29 31 31 36 31 21 22 23 24 29 33 36 33 35 35 36 36 36 37
15 11 9 13 10 12 6 12 17 14 8 11 12 12 16 16 14 16 24 20 19 20 20 19 23 28 32 36 36 21 14 13 18 20 20 23 26 29 31 30 32 33 35 32
4 5 8 12 13 7 12 8 10 5 8 8 8 10 9 10 8 18 19 16 15 20 27 31 28 24 26 29 40 25 19 13 10 12 16 22 28 30 29 30 30 29 29 28
5 4 4 4 4 13 17 7 6 9 7 8 13 13 13 14 14 15 15 18 20 21 24 25 26 29 30 28 27 25 22 27 15 11 14 20 25 26 29 32 29 30 29 26
4 6 3 4 4 20 16 8 11 0 4 4 6 8 10 14 15 14 15 17 18 20 24 27 24 27 30 25 25 16 28 31 20 12 16 19 21 23 28 29 26 25 28 26
4 7 4 2 7 10 17 15 9 3 4 4 5 7 9 12 14 15 14 15 16 16 18 27 27 23 28 29 30 24 30 30 23 22 19 21 23 26 28 26 25 25 26 26
7 1 8 10 15 17 14 7 3 5 4 7 9 10 11 11 14 13 14 15 15 18 26 26 24 25 30 33 34 29 29 29 24 23 20 20 19 28 24 26 32 34 37 40
11 15 11 14 16 13 17 9 1 6 5 5 10 13 14 12 15 16 15 15 16 16 23 23 27 28 30 30 34 36 31 27 23 19 18 20 22 22 20 21 18 26 23 28
Wind_Direction
218 145 198 226 209 236 207 224 234 251 267 234 233 246 251 265 271 255 258 260 258 254 261 243 233 235 229 226 215 212 202 205 200 200 197 199 202 205 208 211 210 209 207 204
231 212 220 229 210 225 241 255 261 269 257 216 267 262 263 256 261 261 259 262 256 256 259 237 225 226 219 214 209 202 200 200 199 196 195 196 200 205 209 210 210 211 208 205
232 231 217 222 232 220 232 236 252 255 315 247 290 276 260 253 255 264 253 249 260 257 268 252 208 217 210 200 200 197 195 197 195 196 193 194 202 206 207 210 210 211 210 208
245 235 210 205 228 206 260 222 254 260 300 277 128 292 236 251 247 252 255 259 253 262 258 257 208 199 201 205 199 193 191 194 193 197 195 193 193 197 206 207 209 209 210 210
243 190 202 212 229 183 253 195 249 226 227 325 200 267 197 213 252 248 252 247 262 264 242 236 212 210 204 197 191 190 191 195 195 200 200 198 197 203 209 209 211 212 212 212
246 248 200 214 178 190 139 97 53 58 102 266 193 207 308 176 216 268 258 255 248 261 259 226 213 180 181 188 187 187 190 192 199 202 202 205 205 206 203 206 209 211 211 211
295 225 205 161 239 149 149 109 292 308 70 250 186 208 249 252 243 223 248 249 258 257 216 196 188 172 165 178 184 186 189 191 201 204 207 211 213 211 210 209 207 206 209 211
245 292 168 172 197 200 215 194 197 207 252 272 115 245 266 226 244 243 278 284 300 289 229 209 203 183 182 183 184 186 192 197 202 205 208 210 211 215 214 219 215 214 213 214
198 268 129 211 179 153 189 188 236 338 46 354 263 269 284 247 283 301 291 295 274 252 235 226 192 192 177 184 191 193 199 200 207 209 207 210 212 215 214 219 223 224 220 217
255 282 261 72 30 287 192 177 74 213 200 247 273 267 270 297 277 313 358 331 311 301 319 281 196 212 203 198 202 204 206 208 206 212 214 215 216 219 218 221 221 223 222 219
168 159 282 105 191 211 189 245 230 199 184 253 258 266 221 219 23 320 310 316 322 303 242 227 222 215 220 217 214 213 215 213 213 218 217 218 221 220 219 222 223 223 222 220
206 159 229 267 284 266 215 261 240 238 239 215 231 266 286 272 281 290 282 289 322 274 247 226 225 214 211 222 220 217 216 215 220 219 215 219 220 221 217 221 224 223 220 217
182 251 275 262 281 237 215 225 235 258 273 239 242 258 257 270 272 270 271 267 243 241 257 252 241 222 221 222 218 219 218 223 224 218 219 218 218 218 218 216 221 220 217 214
257 247 241 252 246 255 225 225 232 236 249 256 241 251 261 270 270 272 272 277 248 262 280 280 276 251 231 228 223 223 226 226 223 222 220 215 215 220 218 214 216 216 213 210
233 251 239 248 253 254 257 260 258 252 256 253 257 258 257 261 271 284 292 290 279 264 280 283 272 259 249 228 227 229 228 222 222 218 213 215 218 216 215 211 213 213 209 210
325 280 273 260 251 240 238 248 256 262 261 259 262 266 267 274 280 279 278 281 292 328 349 330 291 272 260 252 243 233 232 228 219 211 215 215 208 208 208 206 204 206 204 204
269 284 292 280 310 308 281 262 252 254 261 261 264 270 3 352 332 312 328 35 8 357 355 347 340 337 293 267 257 244 239 234 218 214 213 207 203 199 201 198 196 197 198 201
264 269 269 279 285 269 294 313 256 251 267 287 349 28 14 359 334 36 33 8 347 340 335 330 328 329 329 314 284 268 253 230 215 210 204 204 199 195 190 191 192 192 192 194
230 248 267 259 265 279 271 346 3 339 9 14 29 20 12 354 333 290 358 342 318 317 319 319 325 327 325 327 329 305 258 224 208 202 202 203 197 190 185 187 189 187 184 188
308 294 279 299 294 284 64 350 328 314 210 19 28 2 351 348 335 320 327 327 318 319 319 327 334 333 329 332 334 320 287 222 211 211 209 202 194 188 186 188 185 185 188 187
355 326 263 275 278 274 37 348 334 307 314 332 335 331 322 325 313 297 310 314 325 318 316 322 329 320 318 324 332 328 320 277 282 248 223 208 201 197 194 188 185 182 180 179
291 301 304 310 292 264 8 355 355 286 288 302 322 328 316 314 310 303 320 321 320 315 315 321 316 312 313 321 335 320 310 306 290 261 218 206 202 196 191 189 179 179 176 172
264 206 216 194 262 314 321 294 305 256 219 271 295 307 316 309 312 317 319 311 311 306 309 312 311 306 307 315 313 297 296 297 286 228 212 206 196 197 190 181 174 172 175 177
251 257 244 341 263 280 281 293 278 336 295 286 283 287 288 301 308 312 307 304 304 303 306 313 314 311 309 315 307 292 293 286 259 243 217 195 191 190 188 185 184 183 186 186
227 239 244 265 274 276 270 258 173 299 264 297 305 297 299 302 293 292 287 288 290 299 303 309 308 302 298 303 303 305 297 282 243 232 213 193 197 187 190 194 191 196 200 194
238 251 254 260 264 275 283 284 284 279 283 301 292 303 298 295 292 296 287 288 291 290 295 294 291 293 296 302 298 297 303 282 244 221 214 206 193 194 197 196 197 210 212 208
Height
804 815 817 797 804 790 800 808 805 790 775 780 780 770 760 747 748 751 743 733 725 719 700 706 709 714 718 722 726 730 736 743 752 759 766 774 776 781 785 789 792 794 797 800
807 811 791 787 794 801 801 799 795 778 775 784 772 760 749 750 737 729 728 720 716 708 696 700 702 707 708 710 715 721 727 732 741 749 757 765 769 774 779 783 786 790 793 796
788 783 787 792 794 799 793 798 785 783 778 777 777 755 756 741 732 721 719 711 704 693 689 690 696 698 701 703 706 711 718 726 735 743 752 759 768 773 776 778 781 784 789 792
792 778 781 792 793 788 776 780 781 786 789 785 772 736 742 735 727 719 711 704 698 689 686 684 688 691 693 695 702 709 716 724 732 738 744 748 751 758 762 767 772 778 784 787
775 771 779 783 770 781 764 772 779 780 789 789 784 789 720 726 728 714 697 694 687 677 677 678 681 680 684 691 697 705 711 719 726 732 738 744 750 754 757 763 769 775 779 783
777 768 769 767 765 769 769 768 783 799 796 781 773 777 696 732 717 709 696 686 678 669 671 674 675 678 683 690 696 701 708 715 720 727 733 738 742 746 751 755 760 765 771 775
773 770 759 761 769 769 770 779 803 807 822 780 752 772 711 707 697 699 689 678 670 665 669 674 676 677 681 684 690 698 703 709 712 717 722 727 732 737 741 746 753 759 762 765
781 762 762 757 761 763 769 766 777 796 777 740 778 749 713 700 690 686 685 681 676 672 672 667 670 672 675 680 684 692 697 703 706 707 711 718 723 730 736 741 746 748 754 760
777 760 753 755 751 753 764 773 749 770 823 797 724 711 694 694 693 687 689 686 673 663 669 667 669 670 671 677 680 683 691 695 700 705 709 711 718 723 726 731 739 744 749 754
757 762 744 751 755 751 755 753 768 773 770 773 740 719 699 697 689 690 682 684 674 668 667 671 669 674 674 675 679 683 686 688 692 702 706 708 710 714 722 725 728 737 743 748
756 763 754 752 756 750 759 757 752 748 751 728 729 714 697 693 687 688 682 675 677 677 671 669 667 667 674 678 679 679 683 686 687 690 693 698 702 704 713 716 719 725 733 741
753 759 769 753 747 744 745 740 730 733 734 742 735 717 681 679 679 679 677 674 671 676 672 667 665 667 670 673 675 672 674 677 674 676 684 687 693 698 702 706 709 716 723 731
747 758 748 753 745 737 737 728 724 718 724 710 721 710 676 673 671 665 672 666 670 670 671 668 667 664 662 662 663 664 664 664 668 672 674 679 683 689 692 695 700 707 715 723
745 743 737 726 716 718 720 720 720 713 713 703 698 686 677 667 660 650 663 661 669 667 664 660 660 656 655 655 654 655 654 654 657 662 665 666 670 673 680 684 691 698 705 712
745 735 735 720 713 713 708 708 705 698 688 690 677 674 673 662 651 649 651 653 659 664 660 658 657 651 648 648 645 645 640 640 643 648 652 652 655 665 677 677 681 690 697 704
756 733 725 710 709 711 707 698 692 686 679 675 676 675 662 659 656 653 650 652 653 662 664 662 655 651 643 641 637 632 628 631 633 637 638 642 648 653 662 666 671 681 689 696
754 746 732 711 722 721 709 694 689 676 677 675 675 666 690 690 685 669 665 689 692 689 683 678 672 662 653 640 630 623 617 615 619 624 626 631 637 645 651 656 663 670 677 686
743 739 733 718 715 703 683 684 678 679 673 673 690 707 715 720 708 698 696 700 698 691 684 677 672 661 651 639 628 616 612 609 613 616 621 624 631 638 643 651 656 662 667 674
728 726 720 716 698 674 674 706 712 710 703 721 720 721 719 720 708 685 692 698 698 688 684 677 670 662 651 644 631 615 606 605 608 610 612 618 623 628 633 640 648 655 662 670
723 727 729 727 729 701 725 730 720 711 688 722 726 730 726 722 715 692 694 694 690 685 681 675 663 658 653 644 634 625 617 610 606 605 611 616 623 626 628 638 646 650 658 666
777 767 750 734 722 706 724 721 710 713 719 722 731 729 732 726 715 700 692 688 691 688 680 670 661 659 653 645 640 628 623 618 613 611 613 615 618 624 630 637 643 649 657 662
757 762 766 751 759 727 722 723 737 725 715 720 715 711 712 711 706 701 690 687 685 682 679 672 663 656 650 643 637 635 630 625 615 610 612 616 620 622 628 633 637 644 654 660
766 749 765 746 733 721 717 723 717 717 721 720 719 714 714 708 703 699 690 692 688 686 679 671 663 654 649 638 640 630 630 631 622 612 612 616 619 626 626 630 636 642 646 654
747 735 744 746 725 724 718 714 713 715 715 714 714 714 710 706 699 694 695 692 688 681 674 669 660 651 641 633 635 629 626 622 621 618 613 608 616 622 622 625 633 637 642 647
739 734 735 729 719 713 709 709 713 711 711 711 710 710 706 705 700 700 697 693 686 680 673 667 661 654 641 636 629 622 619 617 615 613 609 606 612 609 616 618 619 626 628 632
723 722 722 713 704 704 701 701 706 708 709 710 709 705 703 704 699 695 690 684 680 674 670 667 660 648 634 629 627 620 619 612 610 606 608 604 601 607 612 614 617 623 630 634